• Processing (Info)

  • MPEC 2010-G35 : 2010 GZ6

    The following Minor Planet Electronic Circular may be linked-to from your own Web pages, but must not otherwise be redistributed electronically.

    A form allowing access to any MPEC is at the bottom of this page.


    Read MPEC 2010-G34 Read MPEC 2010-G36


    M.P.E.C. 2010-G35                                Issued 2010 Apr. 7, 00:10 UT
    
         The Minor Planet Electronic Circulars contain information on unusual
             minor planets and routine data on comets.  They are published
       on behalf of Commission 20 of the International Astronomical Union by the
              Minor Planet Center, Smithsonian Astrophysical Observatory,
                              Cambridge, MA 02138, U.S.A.
    
                 Prepared using the Tamkin Foundation Computer Network
    
                                  MPC@CFA.HARVARD.EDU
           URL https://www.minorplanetcenter.org/iau/mpc.html  ISSN 1523-6714
    
                                       2010 GZ6
    
    Observations:
         K10G06Z* C2010 04 06.24086 11 21 12.16 -23 39 38.2          18.6 V EG035703
         K10G06Z  C2010 04 06.24711 11 21 11.77 -23 38 58.0          18.8 V EG035703
         K10G06Z  C2010 04 06.25345 11 21 11.41 -23 38 16.5          19.0 V EG035703
         K10G06Z  C2010 04 06.25980 11 21 11.05 -23 37 38.8          18.2 V EG035703
         K10G06Z  C2010 04 06.29520 11 21 08.85 -23 33 51.8          18.8 V EG035703
         K10G06Z  C2010 04 06.29578 11 21 08.78 -23 33 49.6          18.9 V EG035703
         K10G06Z  C2010 04 06.29633 11 21 08.74 -23 33 44.8          19.1 V EG035703
         K10G06Z  C2010 04 06.29691 11 21 08.74 -23 33 41.2          19.1 V EG035703
         K10G06Z  C2010 04 06.30084 11 21 08.50 -23 33 17.4          19.2 R EG035854
         K10G06Z  C2010 04 06.31523 11 21 07.69 -23 31 44.3          19.8 R EG035854
         K10G06Z  C2010 04 06.32002 11 21 07.34 -23 31 12.6          19.2 R EG035854
         K10G06Z KC2010 04 06.85616 11 20 41.04 -22 34 13.3          18.9 V EG035595
         K10G06Z KC2010 04 06.87160 11 20 40.18 -22 32 33.7          19.2 V EG035595
         K10G06Z KC2010 04 06.88698 11 20 39.28 -22 30 55.6          19.1 V EG035595
         K10G06Z KC2010 04 06.89653 11 20 38.89 -22 29 53.5          18.4 R EG035B04
         K10G06Z  C2010 04 06.89836 11 20 38.73 -22 29 41.9                 EG035587
         K10G06Z  C2010 04 06.89954 11 20 38.67 -22 29 34.5          19.5 R EG035587
         K10G06Z KC2010 04 06.90734 11 20 38.27 -22 28 44.4          18.5 R EG035B04
         K10G06Z KC2010 04 06.91739 11 20 37.69 -22 27 39.9          18.5 R EG035B04
         K10G06Z  C2010 04 06.93581 11 20 36.60 -22 25 39.7                 EG035046
         K10G06Z  C2010 04 06.93676 11 20 36.49 -22 25 34.7                 EG035046
         K10G06Z  C2010 04 06.93868 11 20 36.06 -22 25 22.8                 EG035046
         K10G06Z KC2010 04 06.96011 11 20 35.24 -22 23 04.9          18.4 C EG035204
         K10G06Z KC2010 04 06.96441 11 20 35.01 -22 22 37.0                 EG035204
         K10G06Z KC2010 04 06.97377 11 20 34.47 -22 21 36.5                 EG035204
    
    Observer details:
    046 Klet.  Observers M. Honkova, M. Tichy, J. Ticha, M. Kocer.  Measurer
        M. Tichy.  0.57-m f/5.2 reflector + CCD.
    204 Schiaparelli Observatory.  Observer L. Buzzi.  0.60-m f/4.64 reflector
        + CCD.
    587 Sormano.  Observers F. Manca, .. Sicoli, A. Testa.  Measurer F. Manca.
        0.5-m f/6.8 reflector + CCD.
    595 Farra d'Isonzo.  Observers M. Spolaor, L. Bittesini, E. Pettarin, F. Piani.
        Measurers M. Spolaor, E. Pettarin.  0.40-m f/4.5 reflector + CCD.
    703 Catalina Sky Survey.  Observer A. Boattini.  Measurers J. D. Ahern,
        E. C. Beshore, A. Boattini, G. J. Garradd, A. R. Gibbs, A. D. Grauer,
        R. E. Hill, R. A. Kowalski, S. M. Larson, R. H. McNaught.  0.68-m Schmidt
        + CCD.
    854 Sabino Canyon Observatory, Tucson.  Observer J. E. McGaha.  0.36-m f/10.0
        Schmidt-Cassegrain + CCD.
    B04 OAVdA, Saint-Barthelemy.  Observer A. Carbognani.  0.81-m f/7.9 reflector
        + CCD.
    
    Orbital elements:
    2010 GZ6                                                 Earth MOID = 0.2907 AU
    Epoch 2010 July 23.0 TT = JDT 2455400.5                 MPC
    M 341.81748              (2000.0)            P               Q
    n   0.65105795     Peri.   91.88430     +0.28349459     +0.93100842
    a   1.3184276      Node   199.97753     -0.89471737     +0.34306424
    e   0.1198770      Incl.   42.29194     +0.34512554     +0.12462040
    P   1.51           H   19.6           G   0.15           U   9
    Residuals in seconds of arc
    100406 703  0.1-  0.5-    100406 854  0.7+  0.3+    100406 B04  0.2+  0.3-
    100406 703  0.2-  0.0     100406 854  0.2-  1.5+    100406 046  1.4+  1.7+
    100406 703  0.2+  1.3+    100406 595  0.4-  0.5-    100406 046  0.6+  0.5+
    100406 703  0.6+  1.3-    100406 595  0.0   0.0     100406 046 (3.8-  0.1+)
    100406 703  0.0   0.5+    100406 595  0.2-  0.6-    100406 204  0.4+  0.4-
    100406 703  0.4-  1.0-    100406 B04  0.2+  0.1+    100406 204  0.6+  0.2-
    100406 703  0.5-  0.3+    100406 587  0.0   0.0     100406 204  0.5+  0.1-
    100406 703  0.0   0.2+    100406 587  0.1+  0.2-
    100406 854  0.1-  1.1-    100406 B04  0.2+  0.2-
    
    Ephemeris:
    2010 GZ6                 a,e,i = 1.32, 0.12, 42                  q = 1.1604
    Date    TT    R. A. (2000) Decl.     Delta      r     Elong.  Phase     V
    2010 04 04    11 23.29   -27 30.4    0.375    1.337   149.6    22.2    19.2
    2010 04 14    11 16.27   -09 18.8    0.358    1.319   147.5    24.1    19.1
    2010 04 24    11 15.49   +08 11.6    0.388    1.301   132.9    34.5    19.5
    2010 05 04    11 20.47   +21 20.9    0.451    1.283   117.9    44.0    20.1
    2010 05 14    11 30.11   +30 05.9    0.532    1.265   106.0    50.2    20.6
    2010 05 24    11 43.40   +35 42.6    0.618    1.248    96.8    53.7    21.0
    2010 06 03    11 59.42   +39 17.4    0.703    1.231    89.7    55.5    21.3
    2010 06 13    12 17.52   +41 32.0    0.780    1.216    84.1    56.2    21.5
    2010 06 23    12 37.35   +42 51.6    0.847    1.202    79.8    56.3    21.7
    2010 07 03    12 58.65   +43 31.4    0.901    1.189    76.4    56.2    21.8
    2010 07 13    13 21.36   +43 39.5    0.942    1.179    73.9    56.0    21.9
    2010 07 23    13 45.58   +43 20.5    0.968    1.170    72.3    55.8    21.9
    2010 08 02    14 11.40   +42 35.7    0.979    1.165    71.5    55.7    21.9
    2010 08 12    14 39.08   +41 23.3    0.976    1.161    71.4    55.8    21.9
    2010 08 22    15 08.89   +39 40.4    0.962    1.160    72.0    56.0    21.9
    2010 09 01    15 41.06   +37 21.2    0.937    1.162    73.2    56.2    21.8
    2010 09 11    16 15.79   +34 18.1    0.907    1.167    74.9    56.4    21.8
    2010 09 21    16 53.14   +30 24.5    0.876    1.174    76.9    56.4    21.7
    2010 10 01    17 32.83   +25 36.3    0.850    1.183    79.0    56.2    21.6
    2010 10 11    18 14.36   +19 57.9    0.835    1.194    80.7    55.6    21.6
    2010 10 21    18 56.86   +13 47.0    0.838    1.207    81.9    54.7    21.6
    2010 10 31    19 39.27   +07 32.6    0.862    1.222    82.1    53.6    21.7
    2010 11 10    20 20.66   +01 46.5    0.908    1.238    81.3    52.3    21.8
    2010 11 20    21 00.29   -03 07.0    0.974    1.255    79.5    50.7    21.9
    
    Timothy B. Spahr             (C) Copyright 2010 MPC           M.P.E.C. 2010-G35
    

    Read MPEC 2010-G34 Read MPEC 2010-G36


    MPEC number:

    Enter an MPEC number in one of the following forms:

    • 1997-B01 (the full form)
    • J97B01 (the packed version of the full form)
    • B01 (the abbreviated form)